Regional Weather Roundup
Issued by NWS

Home | Current Version | Previous Version | Text Only | Print | Product List | Glossary Off
Versions: 1 2 3 4 5 6 7 8 9 10 11 12 13 14 15 16 17 18 19 20 21 22 23 24 25 26 27 28 29 30 31 32 33 34 35 36 37 38 39 40 41 42 43 44 45 46 47 48 49 50

000
ASUS43 KOAX 220210
RWRNE

WEATHER ROUNDUP FOR NEBRASKA
NATIONAL WEATHER SERVICE OMAHA NE
800 PM CST TUE NOV 21 2017

NOTES: SATELLITE DATA IS BEING USED TO AUGMENT CLOUD COVER ABOVE
       12000 FEET.
       "FAIR" INDICATES FEW OR NO CLOUDS BELOW 12,000 FEET WITH NO
       SIGNIFICANT WEATHER AND/OR OBSTRUCTIONS TO VISIBILITY.


NEZ001>004-019>022-054>056-220300-
NEBRASKA PANHANDLE

CITY           SKY/WX    TMP DP  RH WIND       PRES   REMARKS
SCOTTSBLUFF    CLOUDY    31  21  66 CALM      30.25F
ALLIANCE       CLOUDY    24  21  88 SE8       30.25F WCI  15
CHADRON        CLOUDY    26  22  84 SW3       30.24F
GORDON         FAIR      23  20  88 CALM      30.25F
KIMBALL        CLOUDY    29  24  81 SW9       30.28R WCI  20
SIDNEY         CLOUDY    23  18  81 S7        30.28F WCI  15
$$

NEZ057>060-069>072-079>082-220300-
SOUTHWEST NEBRASKA

CITY           SKY/WX    TMP DP  RH WIND       PRES   REMARKS
NORTH PLATTE   CLEAR     23  15  71 E3        30.33S
IMPERIAL       CLEAR     26  20  77 S5        30.32S WCI  20
LEXINGTON      CLEAR     23  15  70 CALM      30.36R
MCCOOK         CLOUDY    30  17  58 E5        30.35S WCI  25
OGALLALA       CLOUDY    26  20  79 CALM      30.31R
$$

NEZ005>010-023>029-035>040-094-220300-
NORTH CENTRAL NEBRASKA

CITY           SKY/WX    TMP DP  RH WIND       PRES   REMARKS
VALENTINE      CLEAR     18  11  74 SE3       30.33F
AINSWORTH      CLEAR     19   9  67 CALM      30.33F
BROKEN BOW     CLOUDY    20   9  62 CALM      30.34S
O`NEILL        CLEAR     14  10  84 CALM      30.37R
ORD            CLOUDY    14   8  77 SW3       30.37R
THEDFORD       CLOUDY    22  14  70 CALM      30.32F
$$

NEZ041-046>049-061>064-073>077-083>087-220300-
SOUTH CENTRAL NEBRASKA

CITY           SKY/WX    TMP DP  RH WIND       PRES   REMARKS
GRAND ISLAND   CLOUDY    20  13  74 CALM      30.39F
AURORA         CLOUDY    19  12  74 N6        30.38S WCI  11
HASTINGS       CLOUDY    20   9  62 N3        30.38F
HEBRON         PTCLDY    25  13  59 N5        30.42R WCI  20
HOLDREGE       CLEAR     24  11  57 CALM      30.37R
KEARNEY        CLEAR     19  10  68 SW3       30.39R
YORK           CLOUDY    23  14  68 N8        30.40R WCI  14
$$

NEZ011>018-030>034-042>045-220300-
NORTHEAST NEBRASKA

CITY           SKY/WX    TMP DP  RH WIND       PRES   REMARKS
NORFOLK        CLOUDY    20  12  71 NW7       30.37S WCI  11
ALBION         PTCLDY    17  11  75 CALM      30.38F
BLAIR          CLOUDY    25  12  59 NW10      30.37S WCI  14
COLUMBUS       CLOUDY    21  13  71 NW10      30.42R WCI  10
FREMONT        CLOUDY    18  12  77 NW6       30.41R WCI  10
TEKAMAH        CLOUDY    22   9  57 NW9       30.41R WCI  12
WAYNE          CLOUDY    20   9  64 NW6       30.41R WCI  12
$$

NEZ050>053-065>068-078-088>093-220300-
SOUTHEAST NEBRASKA

CITY           SKY/WX    TMP DP  RH WIND       PRES   REMARKS
LINCOLN        CLOUDY    26  12  55 NW7       30.42R WCI  18
OMAHA EPPLEY   CLOUDY    25  11  55 NW9       30.39R WCI  15
BEATRICE       CLOUDY    23  13  66 NW7       30.41R WCI  14
FALLS CITY     CLOUDY    26  14  60 NW8       30.39R WCI  18
NEBRASKA CITY  CLOUDY    26  14  59 N10       30.38S WCI  17
PLATTSMOUTH    PTCLDY    25  13  60 NW9       30.38S WCI  16
$$

NEZ044-045-051>053-067-220300-
OMAHA AREA

CITY           SKY/WX    TMP DP  RH WIND       PRES   REMARKS
OMAHA EPPLEY   CLOUDY    25  11  55 NW9       30.39R WCI  15
BLAIR          CLOUDY    25  12  59 NW10      30.37S WCI  14
FREMONT        CLOUDY    18  12  77 NW6       30.41R WCI  10
MILLARD        CLOUDY    28  13  51 NW6       30.40S WCI  22
OFFUTT AFB     CLOUDY    26  10  50 NW5       30.39R WCI  20
PLATTSMOUTH    PTCLDY    25  13  60 NW9       30.38S WCI  16
WAHOO          FAIR      25  13  61 NW10      30.40R WCI  15
$$




USA.gov is the U.S. government's official web portal to all federal, state and local government web resources and services.